• In Netherlands
  • List of Countries
  • For 7 days
  • Water Temperature
  • Satellite Maps
  • Weather Map
  • Weather Widgets
  • user-avatar
    Login

    Hourly Weather Galata

    Today, 23 November, Thursday

    Time Temperature Precipitation Wind Pressure Humidity
    00:00 +8°C° 0.1 mm 2 mps 757 mmHg 77%
    01:00 +7°C° 0.1 mm 2 mps 757 mmHg 79%
    02:00 +8°C° 0.1 mm 1 mps 757 mmHg 80%
    03:00 +8°C° 0 mm 1 mps 757 mmHg 81%
    04:00 +7°C° 0 mm 2 mps 758 mmHg 82%
    05:00 +7°C° 0 mm 2 mps 758 mmHg 83%
    06:00 +7°C° 0 mm 2 mps 758 mmHg 84%
    07:00 +7°C° 0 mm 2 mps 759 mmHg 85%
    08:00 +6°C° 0 mm 2 mps 759 mmHg 85%
    09:00 +8°C° 0 mm 2 mps 759 mmHg 80%
    10:00 +9°C° 0 mm 2 mps 760 mmHg 75%
    11:00 +10°C° 0 mm 2 mps 760 mmHg 70%
    12:00 +12°C° 0 mm 2 mps 760 mmHg 69%
    13:00 +12°C° 0 mm 2 mps 760 mmHg 68%
    14:00 +12°C° 0 mm 2 mps 760 mmHg 67%
    15:00 +12°C° 0 mm 2 mps 760 mmHg 71%
    16:00 +10°C° 0 mm 2 mps 760 mmHg 76%
    17:00 +10°C° 0 mm 2 mps 760 mmHg 80%
    18:00 +9°C° 0 mm 2 mps 760 mmHg 83%
    19:00 +9°C° 0 mm 2 mps 760 mmHg 86%
    20:00 +8°C° 0 mm 2 mps 760 mmHg 89%
    21:00 +8°C° 0 mm 2 mps 760 mmHg 90%
    22:00 +8°C° 0 mm 2 mps 760 mmHg 90%
    23:00 +8°C° 0 mm 2 mps 760 mmHg 91%

    Tomorrow, 24 November, Friday

    Time Temperature Precipitation Wind Pressure Humidity
    00:00 +8°C° 0 mm 2 mps 760 mmHg 91%
    01:00 +8°C° 0 mm 2 mps 760 mmHg 91%
    02:00 +8°C° 0 mm 2 mps 760 mmHg 90%
    03:00 +7°C° 0 mm 2 mps 760 mmHg 90%
    04:00 +7°C° 0 mm 2 mps 760 mmHg 90%
    05:00 +7°C° 0 mm 2 mps 760 mmHg 90%
    06:00 +7°C° 0 mm 2 mps 760 mmHg 90%
    07:00 +7°C° 0 mm 2 mps 760 mmHg 89%
    08:00 +7°C° 0 mm 2 mps 760 mmHg 88%
    09:00 +9°C° 0 mm 2 mps 760 mmHg 81%
    10:00 +10°C° 0 mm 2 mps 760 mmHg 73%
    11:00 +13°C° 0 mm 2 mps 760 mmHg 66%
    12:00 +13°C° 0 mm 2 mps 760 mmHg 63%
    13:00 +14°C° 0 mm 2 mps 760 mmHg 60%
    14:00 +15°C° 0 mm 2 mps 760 mmHg 57%
    15:00 +14°C° 0 mm 2 mps 760 mmHg 61%
    16:00 +13°C° 0 mm 2 mps 760 mmHg 65%
    17:00 +12°C° 0 mm 2 mps 760 mmHg 70%
    18:00 +10°C° 0 mm 2 mps 760 mmHg 73%
    19:00 +10°C° 0 mm 3 mps 761 mmHg 76%
    20:00 +10°C° 0 mm 3 mps 761 mmHg 79%
    21:00 +9°C° 0 mm 3 mps 761 mmHg 82%
    22:00 +9°C° 0 mm 3 mps 761 mmHg 85%
    23:00 +9°C° 0 mm 3 mps 761 mmHg 88%

    Day after tomorrow, 25 November, Saturday

    Time Temperature Precipitation Wind Pressure Humidity
    00:00 +9°C° 0 mm 3 mps 761 mmHg 89%
    01:00 +9°C° 0 mm 3 mps 761 mmHg 91%
    02:00 +9°C° 0 mm 3 mps 762 mmHg 92%
    03:00 +9°C° 0 mm 3 mps 761 mmHg 92%
    04:00 +9°C° 0 mm 3 mps 761 mmHg 92%
    05:00 +9°C° 0 mm 3 mps 761 mmHg 92%
    06:00 +8°C° 0 mm 4 mps 761 mmHg 92%
    07:00 +8°C° 0 mm 4 mps 761 mmHg 91%
    08:00 +8°C° 0 mm 4 mps 762 mmHg 91%
    09:00 +9°C° 0 mm 5 mps 762 mmHg 84%
    10:00 +12°C° 0 mm 5 mps 762 mmHg 77%
    11:00 +13°C° 0 mm 6 mps 762 mmHg 70%
    12:00 +13°C° 0 mm 6 mps 761 mmHg 70%
    13:00 +13°C° 0 mm 6 mps 761 mmHg 69%
    14:00 +13°C° 0 mm 6 mps 761 mmHg 68%
    15:00 +12°C° 0 mm 5 mps 760 mmHg 73%
    16:00 +10°C° 0 mm 5 mps 760 mmHg 78%
    17:00 +10°C° 0 mm 5 mps 760 mmHg 83%
    18:00 +9°C° 0 mm 5 mps 760 mmHg 84%
    19:00 +9°C° 0 mm 5 mps 760 mmHg 86%
    20:00 +8°C° 0 mm 5 mps 760 mmHg 87%
    21:00 +8°C° 0 mm 4 mps 760 mmHg 88%
    22:00 +8°C° 0 mm 4 mps 760 mmHg 89%
    23:00 +8°C° 0 mm 4 mps 760 mmHg 90%

    26 November, Sunday

    Time Temperature Precipitation Wind Pressure Humidity
    00:00 +8°C° 0 mm 3 mps 759 mmHg 90%
    01:00 +8°C° 0 mm 3 mps 759 mmHg 91%
    02:00 +8°C° 0 mm 3 mps 759 mmHg 91%
    03:00 +8°C° 0 mm 2 mps 758 mmHg 91%
    04:00 +8°C° 0 mm 2 mps 758 mmHg 91%
    05:00 +8°C° 0 mm 2 mps 758 mmHg 91%
    06:00 +8°C° 0 mm 2 mps 758 mmHg 91%
    07:00 +8°C° 0 mm 2 mps 758 mmHg 91%
    08:00 +8°C° 0 mm 2 mps 758 mmHg 91%
    09:00 +9°C° 0 mm 2 mps 758 mmHg 84%
    10:00 +11°C° 0 mm 3 mps 758 mmHg 76%
    11:00 +12°C° 0 mm 3 mps 757 mmHg 69%
    12:00 +13°C° 0 mm 3 mps 757 mmHg 66%
    13:00 +13°C° 0 mm 3 mps 757 mmHg 63%
    14:00 +14°C° 0 mm 3 mps 756 mmHg 60%
    15:00 +13°C° 0 mm 3 mps 756 mmHg 65%
    16:00 +12°C° 0 mm 3 mps 756 mmHg 70%
    17:00 +11°C° 0 mm 3 mps 756 mmHg 75%
    18:00 +11°C° 0 mm 3 mps 756 mmHg 77%
    19:00 +10°C° 0 mm 3 mps 756 mmHg 80%
    20:00 +10°C° 0 mm 3 mps 756 mmHg 83%
    21:00 +10°C° 0 mm 3 mps 755 mmHg 85%
    22:00 +10°C° 0 mm 4 mps 755 mmHg 87%
    23:00 +10°C° 0 mm 4 mps 755 mmHg 88%

    27 November, Monday

    Time Temperature Precipitation Wind Pressure Humidity
    00:00 +10°C° 0 mm 4 mps 755 mmHg 89%
    01:00 +10°C° 0 mm 4 mps 754 mmHg 90%
    02:00 +10°C° 0 mm 4 mps 754 mmHg 91%
    03:00 +8°C° 0.2 mm 4 mps 754 mmHg 91%
    04:00 +8°C° 0.2 mm 4 mps 754 mmHg 92%
    05:00 +8°C° 0.2 mm 4 mps 753 mmHg 93%
    06:00 +9°C° 0.4 mm 3 mps 753 mmHg 93%
    07:00 +9°C° 0.4 mm 3 mps 753 mmHg 93%
    08:00 +9°C° 0.4 mm 3 mps 753 mmHg 93%
    09:00 +10°C° 0.5 mm 3 mps 754 mmHg 91%
    10:00 +10°C° 0.5 mm 3 mps 754 mmHg 89%
    11:00 +10°C° 0.5 mm 3 mps 754 mmHg 87%
    12:00 +10°C° 0.2 mm 4 mps 753 mmHg 83%
    13:00 +10°C° 0.2 mm 4 mps 753 mmHg 79%
    14:00 +10°C° 0.2 mm 5 mps 753 mmHg 75%
    15:00 +9°C° 0.1 mm 5 mps 753 mmHg 76%
    16:00 +8°C° 0.1 mm 5 mps 753 mmHg 78%
    17:00 +8°C° 0.1 mm 6 mps 753 mmHg 80%
    18:00 +7°C° 1.3 mm 6 mps 754 mmHg 81%
    19:00 +6°C° 1.3 mm 7 mps 754 mmHg 83%
    20:00 +5°C° 1.3 mm 7 mps 754 mmHg 85%
    21:00 +5°C° 1.5 mm 8 mps 754 mmHg 83%
    22:00 +4°C° 1.5 mm 8 mps 754 mmHg 82%
    23:00 +4°C° 1.5 mm 8 mps 754 mmHg 81%

    28 November, Tuesday

    Time Temperature Precipitation Wind Pressure Humidity
    00:00 +4°C° 0.6 mm 8 mps 755 mmHg 80%
    01:00 +2°C° 0.6 mm 8 mps 755 mmHg 79%
    02:00 +2°C° 0.6 mm 8 mps 755 mmHg 78%
    03:00 +2°C° 0.1 mm 8 mps 755 mmHg 77%
    04:00 +2°C° 0.1 mm 8 mps 756 mmHg 76%
    05:00 +2°C° 0.1 mm 8 mps 756 mmHg 76%
    06:00 +1°C° 0 mm 8 mps 756 mmHg 76%
    07:00 +2°C° 0 mm 7 mps 757 mmHg 76%
    08:00 +2°C° 0 mm 7 mps 757 mmHg 77%
    09:00 +3°C° 0 mm 7 mps 758 mmHg 74%
    10:00 +3°C° 0 mm 7 mps 758 mmHg 71%
    11:00 +4°C° 0 mm 6 mps 758 mmHg 68%
    12:00 +4°C° 0 mm 6 mps 758 mmHg 67%
    13:00 +5°C° 0 mm 5 mps 758 mmHg 66%
    14:00 +6°C° 0 mm 5 mps 758 mmHg 65%
    15:00 +5°C° 0 mm 4 mps 758 mmHg 67%
    16:00 +5°C° 0 mm 4 mps 758 mmHg 69%
    17:00 +5°C° 0 mm 3 mps 758 mmHg 71%
    18:00 +4°C° 0 mm 3 mps 759 mmHg 72%
    19:00 +5°C° 0 mm 2 mps 759 mmHg 74%
    20:00 +4°C° 0 mm 2 mps 759 mmHg 76%
    21:00 +4°C° 0 mm 2 mps 759 mmHg 75%
    22:00 +4°C° 0 mm 2 mps 759 mmHg 75%
    23:00 +3°C° 0 mm 2 mps 759 mmHg 75%
    Show more